Regional Weather Roundup
Issued by NWS Pendleton, OR

Home | Current Version | Previous Version | Text Only | Print | Product List | Glossary On
Versions: 1 2 3 4 5 6 7 8 9 10 11 12 13 14 15 16 17 18 19 20 21 22 23 24 25 26 27 28 29 30 31 32 33 34 35 36 37 38 39 40 41 42 43 44 45 46 47 48 49 50
000
ASUS46 KPDT 292010
RWRPDT
PENDLETON REGIONAL WEATHER ROUNDUP
NATIONAL WEATHER SERVICE PENDLETON OREGON
100 PM PDT SUN MAR 29 2015

NOTE: FAIR INDICATES FEW OR NO CLOUDS BELOW 12,000 FEET WITH NO
SIGNIFICANT WEATHER AND/OR OBSTRUCTIONS TO VISIBILITY.

# INDICATES UNOFFICIAL STATION AND DATA

WAZ520-292110-
EAST SLOPES OF WASHINGTON CASCADES

CITY            SKY/WX      TMP DP  RH  WIND    PRES   REMARKS
#BUMPING DAM    N/A         48  N/A N/A S7      N/A
#CLE ELUM HS    N/A         55  36  49  SW3     30.16F
#CLE ELUM LAKE  N/A         53  37  54  CALM    30.21F
#CLIFFDEL 2NW   N/A         53  39  59  NW1     N/A
#EASTON DOT     N/A         53  17  24  N1      N/A
#GLENWOOD       N/A         61  39  44  S7      30.22F
#MANASTASH CYN  N/A         53  36  52  N2      30.16F
#NELSON         N/A         54  39  57  CALM    30.24F
#NELSON 3SW     N/A         51  39  63  CALM    30.45F
#NILE           N/A         56  39  53  W2      29.46F
#PEOH POINT     N/A         45  33  63  W2      N/A
#RONALD 2NW     N/A         53  38  57  W2      30.06F
#SNOWDEN        N/A         58  21  24  NW2     N/A
#SOUTH BLEWITT  N/A         54  36  50  CALM    N/A
#TEANAWAY 4NE   N/A         56  43  62  SW3     N/A
#TROUT LAKE 1NE N/A         59  37  44  NW5     30.23F
$$

WAZ521-292110-
SIMCOE HIGHLANDS

CITY            SKY/WX      TMP DP  RH  WIND    PRES   REMARKS
#SATUS PASS DOT N/A         55  25  31  CALM    N/A
#CENTERVILLE 4W N/A         60  41  49  NW12    29.96F
#CENTERVILLE 1SWN/A         58  38  47  W7      30.19F
#GOLDENDALE     N/A         58  38  47  W7      N/A
#GOLDENDALE 1NE N/A         59  27  29  SW3     N/A
#GOLDENDALE 5WNWN/A         59  36  42  W12     30.21F
#GOODNOE HILLS  N/A         62  41  46  SW14    N/A
#LYLE 6NE       N/A         57  45  64  S3      30.20F
$$

WAZ026-292110-
KITTITAS VALLEY

CITY            SKY/WX      TMP DP  RH  WIND    PRES   REMARKS
ELLENSBURG AP   CLOUDY      60  37  42  NW15    30.20F
#ELLENSBURG 3NE N/A         56  39  53  N7      30.19F
#ELLENSBURG 1E  N/A         57  36  45  CALM    N/A
#KITTITAS 4N    N/A         58  41  53  NW5     28.50F
#KITTITAS 3S    N/A         57  41  55  W3      30.19F
#THORP 6N       N/A         53  38  57  W8      30.24F
$$

WAZ027-292110-
YAKIMA VALLEY

CITY            SKY/WX      TMP DP  RH  WIND    PRES   REMARKS
SUNNYSIDE AP    MOCLDY      62  39  43  NE3     30.20F
YAKIMA AIRPORT  MOCLDY      63  38  39  VRB5    30.20F
#DONALD 2NE     N/A         70  30  22  CALM    29.03F
#GRANDVIEW      N/A         63  40  43  S3      30.20F
#MABTON         N/A         62  45  54  N1      30.19F
#MOXEE 2E       N/A         60  18  19  E5      30.06F
#NACHES 2SW     N/A         58  45  62  E2      30.23S
#TERRACE HTS    N/A         59  39  47  CALM    30.17F
#TOPPENISH      N/A         61  39  44  S2      30.11F
#WAPATO 4NE     N/A         70  30  22  CALM    29.03F
#WEST VALLEY    N/A         58  40  51  CALM    30.18F
#W YAKIMA       N/A         59  40  49  E1      30.19F
#WHITE SWAN 5E  N/A         60  43  53  NE3     30.19F
#WILEY CITY 3W  N/A         60  39  46  CALM    30.22F
$$

WAZ028-292110-
LOWER COLUMBIA BASIN...WASHINGTON

CITY            SKY/WX      TMP DP  RH  WIND    PRES   REMARKS
PASCO           PTCLDY      67  37  33  SW6     30.21F
PROSSER AWOS    N/A         64  41  43  E6      30.21F
RICHLAND AWOS   PTCLDY      68  37  32  S12     30.20F
#BASIN CITY 5SW N/A         65  43  45  SW6     30.20F
#BENTON CITY    N/A         63  39  41  SW9     30.11F
#CONNELL 5N     N/A         63  45  52  S6      30.21F
#CONNELL 5NW    N/A         61  44  53  S9      30.17F
#ELTOPIA        N/A         68  44  42  SW2     30.17F
#ELTOPIA 6NW    N/A         62  40  44  S12     29.17F
#KAHLOTUS       N/A         60  40  47  NW14    30.21F
#KENNEWICK 3S   N/A         66  39  37  SW1     30.22F
#PASCO-BROADMOORN/A         68  36  31  S3      30.10F
#PATERSON       N/A         62  42  48  SW6     30.20F
#PROSSER DOT    N/A         65  36  34  S2      N/A
#PROSSER        N/A         64  39  40  SE6     30.19F
#SAGEMOOR 2W    N/A         63  45  52  E5      30.05F
#TOUCHET 2S     N/A         68  46  45  NW3     30.19F
#WEST PASCO     N/A         68  44  42  W2      30.25F
$$

WAZ029-292110-
FOOTHILLS OF THE BLUES...WASHINGTON

CITY            SKY/WX      TMP DP  RH  WIND    PRES   REMARKS
WALLA WALLA AP  PTCLDY      66  39  37  W12     30.21F
#DAYTON SCHOOL  N/A         63  33  32  SW3     30.22F
#DELANEY DOT    N/A         65  36  34  SW2     N/A
#LOWDEN 2SE     N/A         67  46  47  W2      30.18F
#PLEASANT VIEW 1N/A         62  41  46  S12     30.26F
#PRESCOTT       N/A         64  43  46  SW5     30.22F
#SUDBURY        N/A         67  N/A N/A CALM    N/A
#WHITMAN COLLEGEN/A         63  41  44  SW3     30.25F
#WAITSBURG 5S   N/A         60  42  51  SW7     30.32S
#WAITSBURG 8N   N/A         62  19  19  S9      30.06S
#WALLA WALLA 5E N/A         65  46  50  W7      N/A
#WALLA WALLA U  N/A         67  44  43  CALM    30.21F
#WHITMAN MISSIONN/A         66  47  50  NW2     30.22F
$$

WAZ030-292110-
BLUE MOUNTAINS...WASHINGTON

CITY            SKY/WX      TMP DP  RH  WIND    PRES   REMARKS
#DIXIE 5SE      N/A         58  35  42  W6      30.16S
$$

ORZ009-041-WAZ024-292110-
COLUMBIA RIVER GORGE

CITY            SKY/WX      TMP DP  RH  WIND    PRES   REMARKS
HOOD RIVER AP   PTCLDY      63  37  38  NW8     30.24F
THE DALLES AP   PTCLDY      64  42  45  CALM    30.22F
#ARLINGTON AIRPON/A         63  37  38  W12     29.98S
#CELILO DOT     N/A         60  40  47  SW6     N/A
#LYLE           N/A         62  44  52  NW3     30.23F
#MARYHILL       N/A         60  44  55  W1      N/A
#MOSIER 1S      N/A         64  35  34  NW6     30.21F
#MURDOCK        N/A         61  48  62  NW5     30.23F
#RUFUS DOT      N/A         61  39  44  CALM    N/A

$$

ORZ510-292110-
NORTH CENTRAL OREGON

CITY            SKY/WX      TMP DP  RH  WIND    PRES   REMARKS
#CHENOWITH 1W   N/A         55  39  55  NW14    N/A
#COW CYN RST AREN/A         57  29  34  SW6     N/A
#DUFUR 9E       N/A         53  40  61  N3      30.28F
#GRASS VALLEY 1SN/A         61  32  33  SW7     30.24F
#KENT DOT       N/A         61  27  27  NW7     N/A
#MAUPIN SCHOOL  N/A         64  37  37  NE2     30.22F
#MORO SCHOOL    N/A         60  47  62  W2      30.23F
#SHANIKO 5WSW   N/A         57  21  24  SW10    N/A
#SHANIKO 4NW    N/A         57  26  30  W7      30.24F
#TYGH VALLEY 2NEN/A         63  44  50  E2      30.21F
#WAPANITIA AIRPON/A         64  35  34  W1      30.23F
#WASCO DOT      N/A         63  34  34  W6      N/A
#WASCO 5NE      N/A         59  37  44  N3      30.23F
$$

ORZ511-292110-
CENTRAL OREGON

CITY            SKY/WX      TMP DP  RH  WIND    PRES   REMARKS
BEND AIRPORT    N/A         N/A N/A N/A MISG    N/A
MADRAS AIRPORT  PTCLDY      61  34  36  SE3     30.24F
PRINEVILLE AP   SUNNY       63  27  25  CALM    30.22F
REDMOND AIRPORT SUNNY       63  25  23  SW3     30.21F
#BEND 6E        N/A         63  26  24  CALM    30.14F
#BEND 1SW       N/A         64  34  33  SW2     N/A
#BEND-AWBREY    N/A         63  32  31  CALM    30.22F
#BEND-KIM LN    N/A         65  31  28  SW2     30.20F
#CULVER         N/A         63  29  28  E2      30.18F
#LAKE BILLY CHINN/A         63   0   8  N5      30.23F
#MADRAS         N/A         60  35  39  E2      N/A
#POWELL BUTTE   N/A         68  37  32  SE2     29.83F
#PRINEVILLE 3N  N/A         64  32  30  S1      30.19F
#WARM SPRINGS   N/A         66  38  36  CALM    30.18F

$$


ORZ509-292110-
EAST SLOPES OF OREGON CASCADES

CITY            SKY/WX      TMP DP  RH  WIND    PRES   REMARKS
#BLUE BOX PASS  N/A         56   3  11  CALM    N/A
#CAMP SHERMAN   N/A         67  32  27  CALM    30.22F
#LA PINE DOT    N/A         64  17  16  SW6     N/A
#LA PINE 4NW    N/A         59  31  34  CALM    30.32F
#LAVA BUTTE DOT N/A         64  27  24  SE2     N/A
#SISTERS AIRPOR N/A         62  39  43  N1      30.17S
#SISTERS ODOT   N/A         61  N/A N/A CALM    N/A
#SISTERS 3N     N/A         62  35  36  S3      30.25S
#SUNRIVER       N/A         61  31  32  E3      30.14F
#SUTTLE LK DOT  N/A         57  34  42  W15     N/A
#TUMALO 3W      N/A         61  29  30  NE2     30.11F
#WANOGA BUTTE D N/A         54  29  38  SE3     N/A

$$

ORZ044-292110-
LOWER COLUMBIA BASIN...OREGON

CITY            SKY/WX      TMP DP  RH  WIND    PRES   REMARKS
HERMISTON       PTCLDY      67  38  34  NW8     30.21F
#BOARDMAN SCHOOLN/A         66  38  36  W2      30.21F
#BOARDMAN 8SW   N/A         64  40  41  SW10    30.20F
#ECHO 8SW       N/A         66  40  38  W3      30.19F
#IONE SCHOOL    N/A         63  40  43  W7      30.20F
#IRRIGON 4NW    N/A         65  44  46  SW6     N/A
#UMATILLA       N/A         64  41  43  N3      30.13F
$$

ORZ507-292110-
NORTHERN FOOTHILLS OF THE BLUES

CITY            SKY/WX      TMP DP  RH  WIND    PRES   REMARKS
PENDLETON AIRPT PTCLDY      64  41  43  NW10    30.20F
#ADAMS 3WNW     N/A         62  43  50  W5      30.21F
#ATHENA         N/A         62  39  43  SW2     30.24F
#CAYUSE         N/A         63  40  43  W6      30.20F
#HELIX SCHOOL   N/A         63  38  39  SW6     30.22F
#HELIX 3N       N/A         61  36  39  SW5     30.18F
#HELIX 6SW      N/A         61  38  42  W3      30.20F
#HOLDMAN 5SE    N/A         62  40  44  CALM    30.21F
#HOLDMAN 6E     N/A         62  38  41  E7      30.03F
#M-F FERNDALE   N/A         70  43  38  CALM    30.19F
#M-F GROVE ELEM N/A         66  32  28  SW7     30.19S
#M-FREEWATER 5SEN/A         67  43  42  W5      30.19F
#PENDLETON DNTN N/A         69  40  35  SW2     30.19F
#PDT AQUATIC CTRN/A         66  45  47  W5      30.22S
#PENDLETON 5NE  N/A         64  44  48  NW1     30.16F
#PDT SUNRIDGE   N/A         65  42  43  W1      30.21F
#PENDLETON 7NW  N/A         67  46  47  W7      28.06S
#TUTUILLA       N/A         65  43  45  W3      30.21F
#UMAPINE 2E     N/A         67  46  47  NW5     30.18F
#WESTON SCHOOL  N/A         63  33  32  CALM    30.19F

$$

ORZ508-292110-
SOUTHERN FOOTHILLS OF THE BLUES

CITY            SKY/WX      TMP DP  RH  WIND    PRES   REMARKS
LEXINGTON       MOSUNNY     66  37  34  W13     30.23F
#AJAX           N/A         62  33  34  S7      30.14F
#CONDON SCHOOL  N/A         60  32  35  CALM    30.17F
#CONDON 5W      N/A         57  27  31  W9      30.20F
#FOSSIL SCHOOL  N/A         62  33  34  W6      30.18S
#HEPPNER EOC    N/A         63  36  36  NW3     30.16F
#HEPPNER 4NE    N/A         60  34  37  NW5     30.22F
#LEXINGTON 2SE  N/A         66  38  36  NW3     30.16F
#MIKKALO        N/A         60  39  46  NW7     30.20F
#OLEX 4N        N/A         61  42  50  W9      30.20F
#RUGGS 5NE      N/A         65  36  34  W7      30.36F
#RUGGS 2SW      N/A         63  33  32  W8      30.23F

$$

ORZ502-503-292110-
BLUE MOUNTAINS

CITY            SKY/WX      TMP DP  RH  WIND    PRES   REMARKS
MEACHAM         SUNNY       60  27  28  VRB5    30.23F
#BATTLE MTN DOT N/A         57  34  42  S7      N/A
#HEPPNER 15SE   N/A         58  31  36  N2      30.14F
#LADD CYN SMT   N/A         55  26  32  E12     N/A
#LADD CREEK ODOTN/A         61  34  36  S5      N/A
#LONG CREEK HS  N/A         59  31  34  CALM    30.20F
#N POWDER DOT   N/A         60  34  37  N1      N/A
#PIKES PEAK     N/A         54  37  52  SW12    27.99S
#TOLLGATE       N/A         51  31  46  SW2     30.17F
#TROY SCHOOL    N/A         65  39  38  NE2     30.07F
#UKIAH          N/A         60  34  37  SW5     30.30F
#WESTON 4E      N/A         59  33  37  SW5     30.19F
$$

ORZ505-292110-
JOHN DAY BASIN

CITY            SKY/WX      TMP DP  RH  WIND    PRES   REMARKS
JOHN DAY        SUNNY       62  31  31  N3      30.24F
#JOHN DAY KJDY  N/A         61  56  84  E2      30.21F
#DAYVILLE SCHOOLN/A         61  32  33  E1      30.18F
#MITCHELL       N/A         63  41  44  NW1     30.32F
#MONUMENT HS    N/A         62  33  34  CALM    30.22F
#MT. VERNON 5SE N/A         57  37  47  CALM    30.21F
#WINLOCK        N/A         63  31  30  CALM    30.30F
$$

ORZ506-292110-
OCHOCO AND JOHN DAY HIGHLANDS

CITY            SKY/WX      TMP DP  RH  WIND    PRES   REMARKS
#BUCK CREEK DOT N/A         62  62  100 SE7     N/A
#HORSE RIDGE DO N/A         63  20  19  SE7     N/A
#KEYES SMT DOT  N/A         61  31  32  CALM    N/A
#PAULINA SCHOOL N/A         69  35  28  NE1     30.20F
#PINE MTN OBS   N/A         52  24  33  S9      N/A
#PRAIRIE CITY   N/A         60  26  27  E1      30.18F
#SENECA         N/A         57  N/A N/A N6      N/A
#SENECA 9NW     N/A         57  30  35  S1      30.29F
$$

ORZ049-292110-
GRANDE RONDE VALLEY

CITY            SKY/WX      TMP DP  RH  WIND    PRES   REMARKS
LA GRANDE       SUNNY       61  34  36  SE6     30.23F
#COVE           N/A         59  44  57  N2      30.23F
#COVE SCHOOL    N/A         62  39  43  CALM    30.19F
#ELGIN 3N       N/A         60  36  41  S9      30.19F
#ELGIN 1E       N/A         59  39  47  CALM    N/A
#IMBLER SCHOOL  N/A         57  38  49  S3      30.18F
#ISLAND CITY 4N N/A         59  48  67  E1      30.26F
#LADD CYN DOT   N/A         59  32  36  SE12    N/A
#UNION 1S       N/A         61  36  39  SE7     30.17F
$$

ORZ050-292110-
WALLOWA COUNTY

CITY            SKY/WX      TMP DP  RH  WIND    PRES   REMARKS
#ENTERPRISE HS  N/A         58  37  45  W1      30.22S
#IMNAHA 10S     N/A         64  33  31  N1      30.19F
#JOSEPH 3N      N/A         56  35  45  NW5     30.24F
#JOSEPH 3W      N/A         55  21  26  CALM    30.07F
#LOSTINE        N/A         56  35  45  CALM    30.09F
#MT HOWARD 8000 N/A         41  23  48  SW1     30.31R
#PROMISE 1S     N/A         55  32  41  E7      30.36F
#SHEEP RDG 7000 N/A         42  25  51  CALM    30.34F
#WALLOWA SCHOOL N/A         57  34  42  CALM    31.24F



$$



USA.gov is the U.S. government's official web portal to all federal, state and local government web resources and services.